{"data":{"norad_id":64676,"intl_designator":"2025-139N","name":"STARLINK-34573","alt_names":[],"object_type":"PAYLOAD","status":"ACTIVE","operator":null,"country":"US","launch_date":"2025-06-28","launch_site_code":"AFETR","launch_vehicle":null,"mission":null,"orbit_class":"UNKNOWN","rcs_meters":null,"size_class":null,"mass_kg":null,"dimensions":null,"purposes":["comms"],"wikipedia_slug":null,"has_3d_model":false,"image_url":null,"decayed_at":null,"tle_current":{"epoch":"2026-09-20T19:23:50.214912Z","epoch_age_seconds":105011,"freshness":"FRESH","line1":"1 64676U 25139N   26263.80822008  .00011502  00000+0  35110-3 0  9997","line2":"2 64676  53.1591 296.0513 0001195  77.2673 282.8463 15.34393645 70226","mean_motion":15.34393645,"eccentricity":0.0001195,"inclination_deg":53.1591,"raan_deg":296.0513,"arg_perigee_deg":77.2673,"mean_anomaly_deg":282.8463,"bstar":0.0003511,"rev_number":7022,"period_min":93.848146770707,"perigee_km":461.90464600568,"apogee_km":463.53961133743,"semimajor_km":6840.8591286716,"source":"CELESTRAK","updated_at":"2026-09-21T09:00:35.399410Z"}}}